Location: Recife
(8.0585°S, 34.8848°W)
Time: 13:12:10
(UTC-03:00)

Tiros 1 - Pass Details

Date: 15 April 2026
Orbit: 618 x 648 km, 48.4° (Epoch: 11 May)

Event Time Altitude Azimuth Distance (km) Brightness Sun altitude
Rises 07:07:11 0° 229° (SW) 2,892 10.0 24.7°
Reaches altitude 10° 07:09:34 10° 235° (SW) 1,981 9.2 25.2°
Maximum altitude 07:13:56 46° 308° (NW) 831 7.8 26.3°
Drops below altitude 10° 07:18:15 10° 22° (NNE) 1,967 10.3 27.3°
Sets 07:20:37 0° 28° (NNE) 2,869 11.1 27.9°
